GW1454 Weather Reports


Display with metric or nautical units.
time (UTC)temp
F
wind
direction
speed
MPH
gust
MPH
rain 1hr
in
rain 24hr
in
rain mn
in
humidity
%
barometer
mb
20260505022550 61 0 0.0 1.0 0.00 0.00 0.00 50 1015.0
20260505022047 61 0 0.0 2.0 0.00 0.00 0.00 50 1015.0
20260505021554 61 0 0.0 2.0 0.00 0.00 0.00 51 1014.9
20260505021046 60 98 0.0 2.0 0.00 0.00 0.00 51 1014.9
20260505020548 60 0 0.0 1.0 0.00 0.00 0.00 54 1014.8
20260505020053 60 0 0.0 1.0 0.00 0.00 0.00 54 1014.8
20260505015546 60 0 0.0 1.0 0.00 0.00 0.00 54 1014.8
20260505015048 60 0 0.0 1.0 0.00 0.00 0.00 55 1014.9
20260505014554 60 0 0.0 0.0 0.00 0.00 0.00 56 1014.8
20260505014047 61 0 0.0 0.0 0.00 0.00 0.00 54 1014.7
20260505013545 61 0 0.0 1.0 0.00 0.00 0.00 51 1014.6
20260505013052 62 0 0.0 1.0 0.00 0.00 0.00 52 1014.6
20260505012548 62 0 0.0 0.0 0.00 0.00 0.00 50 1014.5
20260505012047 63 0 0.0 0.0 0.00 0.00 0.00 50 1014.5
20260505011611 63 0 0.0 1.0 0.00 0.00 0.00 52 1014.4
20260505011047 64 0 0.0 2.0 0.00 0.00 0.00 49 1014.3
20260505010545 64 94 0.0 2.0 0.00 0.00 0.00 44 1014.3
20260505010053 65 0 0.0 2.0 0.00 0.00 0.00 46 1014.2
20260505005548 65 0 0.0 3.0 0.00 0.00 0.00 45 1014.2
20260505005049 66 0 0.0 3.0 0.00 0.00 0.00 46 1014.0
20260505004559 65 86 0.0 2.0 0.00 0.00 0.00 44 1014.0
20260505004046 65 0 0.0 2.0 0.00 0.00 0.00 45 1013.9
20260505003547 65 0 0.0 2.0 0.00 0.00 0.00 44 1013.9
20260505003057 66 0 0.0 2.0 0.00 0.00 0.00 45 1014.0
20260505002547 66 69 0.0 2.0 0.00 0.00 0.00 43 1014.0
20260505002047 67 0 0.0 0.0 0.00 0.00 0.00 43 1013.9
20260505001613 67 0 0.0 0.0 0.00 0.00 0.00 44 1013.9
20260505001045 68 0 0.0 0.0 0.00 0.00 0.00 42 1013.9
20260505000545 68 0 0.0 0.0 0.00 0.00 0.00 41 1013.9
20260505000106 69 0 0.0 2.0 0.00 0.00 0.00 40 1013.8
20260504235547 70 0 0.0 2.0 0.00 0.00 0.00 39 1013.8
20260504235049 71 0 0.0 2.0 0.00 0.00 0.00 38 1013.6
20260504234557 72 0 0.0 2.0 0.00 0.00 0.00 37 1013.6
20260504234048 72 0 0.0 4.0 0.00 0.00 0.00 36 1013.5
20260504233546 73 102 1.0 5.0 0.00 0.00 0.00 35 1013.5
20260504233109 73 101 1.0 5.0 0.00 0.00 0.00 34 1013.5
20260504232546 74 92 0.0 6.0 0.00 0.00 0.00 34 1013.4
20260504232046 74 103 2.0 6.0 0.00 0.00 0.00 34 1013.3
20260504231553 74 97 2.0 7.0 0.00 0.00 0.00 34 1013.3
20260504231045 74 101 2.0 7.0 0.00 0.00 0.00 33 1013.3
20260504230548 75 112 1.0 6.0 0.00 0.00 0.00 33 1013.3
20260504230058 75 54 2.0 9.0 0.00 0.00 0.00 33 1013.3
20260504225551 76 76 3.0 9.0 0.00 0.00 0.00 33 1013.4
20260504225049 76 96 3.0 9.0 0.00 0.00 0.00 33 1013.3
20260504224556 77 62 3.0 9.0 0.00 0.00 0.00 32 1013.3
20260504224048 78 263 1.0 5.0 0.00 0.00 0.00 32 1013.3
20260504223547 78 76 2.0 5.0 0.00 0.00 0.00 32 1013.4
20260504223055 78 135 2.0 5.0 0.00 0.00 0.00 31 1013.5
20260504222549 78 0 1.0 7.0 0.00 0.00 0.00 31 1013.5
20260504222047 78 0 2.0 12.0 0.00 0.00 0.00 31 1013.5
20260504221553 78 84 3.0 12.0 0.00 0.00 0.00 30 1013.6
20260504221045 78 38 3.0 10.0 0.00 0.00 0.00 30 1013.6
20260504220546 79 31 2.0 6.0 0.00 0.00 0.00 31 1013.4
20260504220052 79 91 2.0 6.0 0.00 0.00 0.00 30 1013.5
20260504215547 79 105 2.0 6.0 0.00 0.00 0.00 31 1013.5
20260504215047 79 22 2.0 5.0 0.00 0.00 0.00 31 1013.4
20260504214549 79 92 2.0 6.0 0.00 0.00 0.00 31 1013.5
20260504214047 79 60 1.0 12.0 0.00 0.00 0.00 32 1013.5
20260504213548 78 338 3.0 12.0 0.00 0.00 0.00 32 1013.4
20260504213054 78 114 3.0 10.0 0.00 0.00 0.00 32 1013.4
20260504212548 78 79 5.0 10.0 0.00 0.00 0.00 32 1013.5
20260504212048 78 91 4.0 10.0 0.00 0.00 0.00 32 1013.5
20260504211552 78 347 3.0 10.0 0.00 0.00 0.00 32 1013.4
20260504211048 79 107 2.0 10.0 0.00 0.00 0.00 32 1013.5
20260504210546 78 0 4.0 10.0 0.00 0.00 0.00 32 1013.5
20260504210052 78 25 3.0 9.0 0.00 0.00 0.00 33 1013.5
20260504205547 78 28 4.0 11.0 0.00 0.00 0.00 31 1013.6
20260504205047 78 115 5.0 11.0 0.00 0.00 0.00 33 1013.6
20260504204601 78 125 5.0 11.0 0.00 0.00 0.00 32 1013.7
20260504204047 79 50 4.0 11.0 0.00 0.00 0.00 32 1013.7
20260504203547 79 327 4.0 10.0 0.00 0.00 0.00 34 1013.7
20260504203058 79 31 3.0 9.0 0.00 0.00 0.00 33 1013.7
20260504202547 78 72 3.0 9.0 0.00 0.00 0.00 34 1013.7
20260504202051 78 132 4.0 9.0 0.00 0.00 0.00 33 1013.8
20260504201551 78 45 2.0 9.0 0.00 0.00 0.00 33 1013.9
20260504201046 78 67 3.0 9.0 0.00 0.00 0.00 33 1014.0
20260504200547 78 78 4.0 9.0 0.00 0.00 0.00 33 1013.9
20260504195545 78 280 3.0 10.0 0.00 0.00 0.00 34 1014.0
20260504195047 79 242 3.0 10.0 0.00 0.00 0.00 33 1014.1
20260504194603 78 37 2.0 15.0 0.00 0.00 0.00 34 1014.2
20260504194047 78 126 2.0 15.0 0.00 0.00 0.00 34 1014.3
20260504193544 78 78 1.0 8.0 0.00 0.00 0.00 34 1014.2
20260504193102 77 295 3.0 9.0 0.00 0.00 0.00 35 1014.3
20260504192546 77 69 3.0 9.0 0.00 0.00 0.00 34 1014.4
20260504192048 77 336 2.0 9.0 0.00 0.00 0.00 35 1014.5
20260504191612 78 312 4.0 9.0 0.00 0.00 0.00 35 1014.6
20260504191048 78 40 3.0 10.0 0.00 0.00 0.00 34 1014.7
20260504190551 77 44 3.0 10.0 0.00 0.00 0.00 34 1014.7
20260504190051 77 166 3.0 9.0 0.00 0.00 0.00 35 1014.8
20260504185544 77 122 1.0 8.0 0.00 0.00 0.00 36 1014.9
20260504185046 76 0 3.0 9.0 0.00 0.00 0.00 35 1015.1
20260504184553 76 75 2.0 10.0 0.00 0.00 0.00 37 1015.1
20260504184045 76 74 3.0 11.0 0.00 0.00 0.00 36 1015.0
20260504183545 76 303 3.0 11.0 0.00 0.00 0.00 36 1015.1
20260504183053 76 70 5.0 10.0 0.00 0.00 0.00 36 1015.2
20260504182545 76 119 3.0 9.0 0.00 0.00 0.00 37 1015.1
20260504182045 75 85 3.0 9.0 0.00 0.00 0.00 37 1015.1
20260504181557 75 135 2.0 10.0 0.00 0.00 0.00 37 1015.1
20260504181045 75 63 3.0 10.0 0.00 0.00 0.00 36 1015.2
20260504180546 75 72 4.0 10.0 0.00 0.00 0.00 36 1015.3
20260504180052 75 55 3.0 9.0 0.00 0.00 0.00 36 1015.4
20260504175546 75 163 1.0 9.0 0.00 0.00 0.00 37 1015.3
20260504175045 75 83 4.0 10.0 0.00 0.00 0.00 36 1015.4
20260504174551 75 119 2.0 10.0 0.00 0.00 0.00 37 1015.4
20260504174046 75 71 3.0 13.0 0.00 0.00 0.00 39 1015.6
20260504173550 74 69 4.0 13.0 0.00 0.00 0.00 39 1015.5
20260504173050 74 167 3.0 10.0 0.00 0.00 0.00 38 1015.5
20260504172550 74 314 4.0 9.0 0.00 0.00 0.00 38 1015.6
20260504172045 74 103 1.0 9.0 0.00 0.00 0.00 39 1015.6
20260504171552 74 327 3.0 9.0 0.00 0.00 0.00 38 1015.6
20260504171045 73 238 2.0 12.0 0.00 0.00 0.00 40 1015.7
20260504170547 72 74 3.0 12.0 0.00 0.00 0.00 40 1015.9
20260504151050 68 143 2.0 9.0 0.00 0.00 0.00 42 1017.3
20260504150547 67 134 4.0 13.0 0.00 0.00 0.00 41 1017.3
20260504141047 65 103 2.0 4.0 0.00 0.00 0.00 52 1017.2
20260504140548 64 161 0.0 4.0 0.00 0.00 0.00 56 1017.2
20260504130547 57 0 1.0 4.0 0.00 0.00 0.00 67 1017.2
20260504110550 39 0 0.0 0.0 0.00 0.00 0.00 92 1017.1
20260504100550 39 0 0.0 0.0 0.00 0.00 0.00 91 1017.1
20260504090107 39 0 0.0 0.0 0.00 0.00 0.00 90 1017.3
20260504081601 40 0 0.0 0.0 0.00 0.00 0.00 87 1016.7
20260504081048 40 0 0.0 0.0 0.00 0.00 0.00 88 1016.8
20260504080548 40 0 0.0 0.0 0.00 0.00 0.00 87 1016.8
20260504050545 43 0 0.0 0.0 0.00 0.00 0.00 80 1017.2
20260504045548 43 0 0.0 0.0 0.00 0.00 0.00 78 1017.1
20260504045044 43 0 0.0 0.0 0.00 0.00 0.00 78 1017.1
20260504044609 43 0 0.0 0.0 0.00 0.00 0.00 78 1017.0
20260504044045 44 0 0.0 0.0 0.00 0.00 0.00 78 1017.0
20260504043544 43 0 0.0 0.0 0.00 0.00 0.00 78 1016.8
20260504043056 43 0 0.0 0.0 0.00 0.00 0.00 78 1016.7
20260504042547 43 0 0.0 0.0 0.00 0.00 0.00 78 1016.8
20260504042045 43 0 0.0 0.0 0.00 0.00 0.00 77 1016.9
20260504041554 43 0 0.0 0.0 0.00 0.00 0.00 78 1017.0
20260504041045 43 0 0.0 0.0 0.00 0.00 0.00 77 1016.9
20260504040545 43 0 0.0 0.0 0.00 0.00 0.00 77 1017.0
20260504040104 43 0 0.0 0.0 0.00 0.00 0.00 77 1017.0
20260504035547 43 0 0.0 0.0 0.00 0.00 0.00 76 1017.0
20260504035045 43 0 0.0 0.0 0.00 0.00 0.00 76 1017.0
20260504034607 43 0 0.0 0.0 0.00 0.00 0.00 75 1016.9
20260504034044 43 0 0.0 0.0 0.00 0.00 0.00 75 1017.0
20260504033544 43 0 0.0 0.0 0.00 0.00 0.00 75 1017.0
20260504033056 43 0 0.0 0.0 0.00 0.00 0.00 75 1017.0
20260504032544 43 0 0.0 0.0 0.00 0.00 0.00 76 1017.1
20260504032044 43 0 0.0 0.0 0.00 0.00 0.00 76 1017.0
20260504031553 43 0 0.0 0.0 0.00 0.00 0.00 75 1017.0
20260504031046 43 0 0.0 0.0 0.00 0.00 0.00 72 1017.1
20260504030547 44 0 0.0 0.0 0.00 0.00 0.00 72 1017.2
20260504030052 44 0 0.0 0.0 0.00 0.00 0.00 72 1017.2
20260504025550 44 0 0.0 0.0 0.00 0.00 0.00 71 1017.2
20260504025048 45 0 0.0 0.0 0.00 0.00 0.00 72 1017.1
20260504024552 45 0 0.0 0.0 0.00 0.00 0.00 73 1017.0
20260504024047 45 0 0.0 0.0 0.00 0.00 0.00 73 1017.0
20260504023545 45 0 0.0 0.0 0.00 0.00 0.00 72 1016.9
20260504023052 45 0 0.0 0.0 0.00 0.00 0.00 74 1016.9